Simultaneous Nadir Overpasses (SNOs) Predictions

Prediction of SNOs between GOES-17 and AQUA Satellite Orbit:

Table of predicted SNOs for the next 14.0 days since TLE Epoch: 8/16/2019
Index Date Time (GOES-17) GOES-17 Lat,Lon AQUA Lat,Lon Distance(km) Time Diff (sec)
1 08/18/2019 22:42:24 0.04,-137.18 0.18,-136.42 85.02 80
2 08/20/2019 22:30:13 0.05,-137.16 0.81,-133.47 419.08 80
3 08/21/2019 10:51:28 -0.05,-137.16 0.28,-138.63 167.50 80
4 08/23/2019 10:36:38 -0.05,-137.13 -0.36,-135.68 165.54 80
5 08/23/2019 22:58:01 0.05,-137.12 -0.75,-140.87 426.38 80
6 08/25/2019 10:24:27 -0.06,-137.10 -0.99,-132.72 497.52 80
7 08/25/2019 22:45:50 0.06,-137.08 -0.11,-137.91 94.64 80
8 08/27/2019 22:36:19 0.07,-137.04 0.52,-134.96 236.25 80
9 08/28/2019 10:57:35 -0.07,-137.03 0.56,-140.12 350.89 80
10 08/30/2019 10:42:43 -0.07,-136.98 -0.01,-137.16 20.75 80




NCC Satellite Simultaneous Nadir Overpasses (SNOs) Prediction Service
